K8FAM-13 Weather Reports


time (UTC)temp
F
wind
direction
speed
knots
gust
knots
rain 1hr
in
rain 24hr
in
rain mn
in
humidity
%
barometer
mb
20260508054541 41 154 0.9 4.3 0.00 0.00 0.00 59 1014.6
20260508053040 41 173 0.0 2.6 0.00 0.00 0.00 59 1014.8
20260508051538 41 251 0.0 2.6 0.00 0.00 0.00 57 1014.9
20260508050037 42 168 0.0 0.9 0.00 0.00 0.00 58 1014.8
20260508044534 42 202 0.0 1.7 0.00 0.00 0.00 56 1014.7
20260508043034 42 236 0.0 1.7 0.00 0.00 0.00 56 1014.6
20260508041533 42 258 0.0 3.5 0.00 0.00 0.00 55 1014.6
20260508040038 42 257 0.0 0.0 0.00 0.00 0.00 54 1014.4
20260508034533 42 257 0.0 0.0 0.00 0.00 0.00 54 1014.3
20260508033033 43 257 0.0 0.0 0.00 0.00 0.00 54 1014.3
20260508031533 44 257 0.0 0.0 0.00 0.00 0.00 53 1014.4
20260508030033 45 257 0.0 0.0 0.00 0.00 0.00 48 1014.4
20260508024542 46 257 0.0 0.0 0.00 0.00 0.00 47 1014.4
20260508023031 47 257 0.0 0.0 0.00 0.00 0.00 47 1014.4
20260508021533 48 257 0.0 2.6 0.00 0.00 0.00 42 1014.3
20260508020029 48 331 0.0 2.6 0.00 0.00 0.00 43 1014.2
20260508014543 49 329 0.0 2.6 0.00 0.00 0.00 43 1014.0
20260508013028 50 264 0.9 3.5 0.00 0.00 0.00 41 1013.8
20260508011530 50 291 0.9 2.6 0.00 0.00 0.00 41 1013.7
20260508010031 51 303 0.0 2.6 0.00 0.00 0.00 41 1013.6
20260508004529 51 277 0.9 5.2 0.00 0.00 0.00 39 1013.5
20260508003050 52 274 0.9 2.6 0.00 0.00 0.00 39 1013.3
20260508001527 53 270 0.9 7.0 0.00 0.00 0.00 37 1013.1
20260508000025 53 262 0.9 9.6 0.00 0.00 0.00 37 1012.7
20260507234525 54 229 3.5 12.2 0.00 0.00 0.00 37 1012.5
20260507233032 55 327 1.7 8.7 0.00 0.00 0.00 38 1012.5
20260507231524 55 312 0.9 12.2 0.00 0.00 0.00 37 1012.3
20260507230023 56 300 3.5 11.3 0.00 0.00 0.00 35 1012.2
20260507224524 57 267 4.3 10.4 0.00 0.00 0.00 33 1012.0
20260507223023 58 250 2.6 9.6 0.00 0.00 0.00 33 1011.8
20260507221526 58 297 2.6 10.4 0.00 0.00 0.00 31 1011.8
20260507220022 59 254 1.7 8.7 0.00 0.00 0.00 34 1011.7
20260507214521 60 314 1.7 8.7 0.00 0.00 0.00 33 1011.5
20260507213022 60 287 7.8 13.9 0.00 0.00 0.00 28 1011.2
20260507211521 60 25 0.9 7.8 0.00 0.00 0.00 33 1011.2
20260507210019 60 331 3.5 8.7 0.00 0.00 0.00 31 1011.2
20260507204518 61 332 2.6 9.6 0.00 0.00 0.00 31 1011.0
20260507203017 60 322 1.7 7.0 0.00 0.00 0.00 31 1011.1
20260507201518 62 295 4.3 16.5 0.00 0.00 0.00 29 1011.0
20260507200013 62 4 2.6 8.7 0.00 0.00 0.00 29 1011.2
20260507194512 60 295 2.6 8.7 0.00 0.00 0.00 32 1011.3
20260507193011 61 247 2.6 9.6 0.00 0.00 0.00 32 1011.5
20260507191510 62 239 1.7 12.2 0.00 0.00 0.00 30 1011.4
20260507190007 61 199 1.7 9.6 0.00 0.01 0.00 29 1011.4
20260507184511 62 224 1.7 10.4 0.00 0.01 0.00 29 1011.7
20260507183004 62 301 1.7 6.1 0.00 0.01 0.00 38 1011.9
20260507181600 61 266 2.6 6.1 0.00 0.01 0.00 32 1011.9
20260507180100 61 302 3.5 7.8 0.00 0.01 0.00 31 1012.0
20260507174558 60 314 1.7 7.8 0.00 0.01 0.00 34 1012.0
20260507173059 60 298 1.7 6.1 0.00 0.01 0.00 38 1012.1
20260507171556 59 314 1.7 8.7 0.00 0.01 0.00 35 1012.3
20260507170050 60 283 3.5 8.7 0.00 0.01 0.00 34 1012.5
20260507164550 60 320 1.7 7.8 0.00 0.01 0.00 40 1012.5
20260507163046 60 291 1.7 7.8 0.00 0.01 0.00 40 1012.6
20260507161545 59 269 1.7 8.7 0.00 0.01 0.00 39 1012.7
20260507160042 59 298 1.7 6.1 0.00 0.01 0.00 37 1012.8
20260507154538 57 209 0.9 7.0 0.00 0.01 0.00 38 1012.9
20260507153036 56 260 0.9 7.0 0.00 0.01 0.00 43 1012.9
20260507151534 56 345 0.9 5.2 0.00 0.01 0.00 41 1013.0
20260507150032 56 293 1.7 11.3 0.00 0.01 0.00 44 1013.3
20260507144534 55 219 2.6 9.6 0.00 0.01 0.00 46 1013.5
20260507143032 55 308 0.9 9.6 0.00 0.01 0.00 43 1013.7
20260507141525 55 147 1.7 4.3 0.00 0.01 0.00 50 1014.0
20260507140026 54 102 1.7 4.3 0.00 0.01 0.00 53 1014.2
20260507134516 52 277 0.0 3.5 0.00 0.02 0.00 59 1014.5
20260507133012 50 197 1.7 4.3 0.00 0.02 0.00 63 1014.6
20260507131507 48 162 0.9 3.5 0.00 0.02 0.00 68 1014.6
20260507130004 46 280 0.0 2.6 0.00 0.04 0.00 74 1014.7
20260507124600 43 268 0.0 3.5 0.00 0.04 0.00 77 1014.6
20260507123057 42 157 0.0 0.9 0.00 0.04 0.00 78 1014.7
20260507121551 41 135 0.0 0.0 0.00 0.04 0.00 78 1014.5
20260507120047 40 150 0.0 0.0 0.00 0.04 0.00 78 1014.6
20260507114545 39 139 0.0 0.0 0.00 0.06 0.00 78 1014.6
20260507113044 38 137 0.0 0.9 0.00 0.06 0.00 77 1014.5
20260507111546 38 121 0.0 1.7 0.00 0.06 0.00 77 1014.4
20260507110047 38 321 0.0 0.9 0.00 0.06 0.00 77 1014.2
20260507104540 37 321 0.0 0.9 0.00 0.12 0.00 77 1014.1
20260507103037 36 321 0.0 0.9 0.00 0.12 0.00 74 1014.1
20260507101554 36 325 0.0 0.9 0.00 0.12 0.00 73 1013.9
20260507100036 37 325 0.0 0.0 0.00 0.12 0.00 72 1013.9
20260507094532 37 325 0.0 0.0 0.00 0.20 0.00 71 1013.9
20260507093033 37 325 0.0 0.0 0.00 0.20 0.00 70 1013.7
20260507091549 37 325 0.0 0.0 0.00 0.20 0.00 69 1013.9
20260507090028 38 325 0.0 0.0 0.00 0.20 0.00 68 1013.8
20260507084528 38 325 0.0 0.0 0.00 0.33 0.00 67 1013.9
20260507083026 39 325 0.0 0.0 0.00 0.33 0.00 67 1013.9
20260507081534 39 325 0.0 0.0 0.00 0.33 0.00 66 1014.0
20260507080022 39 325 0.0 0.0 0.00 0.33 0.00 66 1013.9
20260507074520 40 325 0.0 0.0 0.00 0.38 0.00 65 1014.0
20260507073018 40 325 0.0 0.0 0.00 0.38 0.00 64 1013.8
20260507071516 40 325 0.0 0.0 0.00 0.38 0.00 64 1014.1
20260507070015 41 325 0.0 0.0 0.00 0.39 0.00 63 1014.0
20260507064514 41 325 0.0 0.0 0.00 0.39 0.00 61 1014.1
20260507063009 42 325 0.0 0.0 0.00 0.39 0.00 60 1014.0
20260507061520 43 325 0.0 0.0 0.00 0.39 0.00 59 1014.0
20260507060005 44 325 0.0 0.0 0.00 0.42 0.00 58 1014.0